����,�C�@��,���@�x,���@��,���@��,���@��,�ϐ�[,�ϐ�d��1,�ϐ�d��2,�ϐ�d��3,�J�@��,�~��o��,�~�ይ�x�i��j,�~�ይ�x�i���j,�~�ይ�x�i���j,���,�Z��~����1,�Z��~����2,�Z��~����3,�Z��~����4,�J�ᔻ��,�Z���T���x
����,��,��,kw/�u,��,m/s,cm,kg/�u,kg/�u,kg/�u,mm,1=�L_0=��,1=�L_0=��,1=�L_0=��,1=�L_0=��,p,p,p,p,p,��,��
2013-11-01 00:00:00,12.49,86.20,0.000,220.50,0.22,0.0,-2.51,0.00,-268.11,0.0,0,0,0,0,0,0.00,0.00,0.00,0.00,-241.80,-241.80
2013-11-01 00:10:00,12.45,86.10,0.000,215.80,0.17,0.0,-3.52,0.00,-272.51,0.0,0,0,0,0,0,0.00,0.00,0.00,0.00,-241.80,-241.90
2013-11-01 00:20:00,12.45,85.80,0.000,206.40,0.21,0.0,-4.87,0.00,-276.24,0.0,0,0,0,0,0,0.00,0.00,0.00,0.00,-241.80,-241.80
2013-11-01 00:30:00,12.29,86.20,0.000,173.20,0.19,0.0,-4.54,0.00,-272.85,0.0,0,0,0,0,0,0.00,0.00,0.00,0.00,-241.90,-241.80
2013-11-01 00:40:00,12.21,86.20,0.000,203.40,0.20,0.0,-2.51,0.00,-273.19,0.0,0,0,0,0,0,0.00,0.00,0.00,0.00,-241.80,-241.80
2013-11-01 00:50:00,12.12,86.50,0.000,204.90,0.17,0.0,-2.84,0.00,-274.20,0.0,0,0,0,0,0,0.00,0.00,0.00,0.00,-241.80,-241.80
2013-11-01 01:00:00,12.03,87.00,0.000,206.70,0.23,0.0,-2.17,0.00,-274.20,0.0,0,0,0,0,0,0.00,0.00,0.00,0.00,-241.80,-241.80
2013-11-01 01:10:00,11.88,87.10,0.000,205.60,0.17,0.0,-2.17,0.00,-274.20,0.0,0,0,0,0,0,0.00,0.00,0.00,0.00,-241.80,-241.80
2013-11-01 01:20:00,11.64,87.50,0.000,200.40,0.20,0.0,-4.87,0.00,-274.88,0.0,0,0,0,0,0,0.00,0.00,0.00,0.00,-241.80,-241.80
2013-11-01 01:30:00,11.59,88.00,0.000,177.50,0.17,0.0,-4.87,0.00,-276.57,0.0,0,0,0,0,0,0.00,0.00,0.00,0.00,-241.80,-241.80
2013-11-01 01:40:00,11.55,87.80,0.000,194.90,0.15,0.0,-4.87,0.00,-280.64,0.0,0,0,0,0,0,0.00,0.00,0.00,0.00,-241.80,-241.80
2013-11-01 01:50:00,11.46,88.50,0.000,183.90,0.23,0.0,-4.54,0.00,-278.27,0.0,0,0,0,0,0,0.00,0.00,0.00,0.00,-241.80,-241.80
2013-11-01 02:00:00,11.38,88.80,0.000,207.00,0.13,0.0,-1.83,0.00,-279.62,0.0,0,0,0,0,0,0.00,0.00,0.00,0.00,-241.80,-241.70
2013-11-01 02:10:00,11.38,88.50,0.002,209.10,0.21,0.0,-3.52,0.00,-279.62,0.0,0,0,0,0,0,0.00,0.00,0.00,0.00,-241.80,-241.80
2013-11-01 02:20:00,11.22,88.00,0.001,219.90,0.19,0.0,-4.54,0.00,-279.62,0.0,0,0,0,0,0,0.00,0.00,0.00,0.00,-240.40,-241.70
2013-11-01 02:30:00,11.30,88.10,0.000,205.20,0.24,0.0,-5.21,0.00,-278.94,0.0,0,0,0,0,0,0.00,0.00,0.00,0.00,-241.70,-241.80
2013-11-01 02:40:00,11.22,88.50,0.000,205.60,0.15,0.0,-3.18,0.00,-278.27,0.0,0,0,0,0,0,0.00,0.00,0.00,0.00,-241.70,-241.80
2013-11-01 02:50:00,11.06,87.80,0.000,192.50,0.22,0.0,-4.87,0.00,-277.25,0.0,0,0,0,0,0,0.00,0.00,0.00,0.00,-241.70,-241.80
2013-11-01 03:00:00,11.11,88.20,0.000,182.20,0.20,0.0,-2.84,0.00,-276.24,0.0,0,0,0,0,0,0.00,0.00,0.00,0.00,-241.80,-241.80
2013-11-01 03:10:00,10.85,88.60,0.000,169.40,0.14,0.0,-4.54,0.00,-277.25,0.0,0,0,0,0,0,0.00,0.00,0.00,0.00,-241.80,-241.80
2013-11-01 03:20:00,10.77,89.20,0.000,185.60,0.21,0.0,-4.87,0.00,-275.56,0.0,0,0,0,0,0,0.00,0.00,0.00,0.00,-242.10,-241.80
2013-11-01 03:30:00,10.68,89.50,0.000,190.60,0.18,0.0,-2.17,0.00,-280.30,0.0,0,0,0,0,0,0.00,0.00,0.00,0.00,-241.40,-241.80
2013-11-01 03:40:00,10.60,90.30,0.000,173.10,0.20,0.0,-4.20,0.00,-276.91,0.0,0,0,0,0,0,0.00,0.00,0.00,0.00,-242.20,-241.80
2013-11-01 03:50:00,10.56,90.40,0.000,190.40,0.26,0.0,-4.87,0.00,-277.25,0.0,0,0,0,0,0,0.00,0.00,0.00,0.00,-241.80,-241.80
2013-11-01 04:00:00,10.44,90.70,0.000,187.70,0.24,0.0,-4.20,0.00,-275.56,0.0,0,0,0,0,0,0.00,0.00,0.00,0.00,-241.70,-241.80
2013-11-01 04:10:00,10.40,91.10,0.000,169.00,0.27,0.0,-2.17,0.00,-275.56,0.0,0,0,0,0,0,0.00,0.00,0.00,0.00,-241.80,-241.80
2013-11-01 04:20:00,10.57,90.70,0.000,211.40,0.30,0.0,-2.84,0.00,-275.22,0.0,0,0,0,0,0,0.00,0.00,0.00,0.00,-241.80,-241.80
2013-11-01 04:30:00,10.44,90.90,0.001,204.00,0.31,0.0,-4.87,0.00,-273.87,0.0,0,0,0,0,0,0.00,0.00,0.00,0.00,-241.80,-241.80
2013-11-01 04:40:00,10.40,90.50,0.001,204.90,0.26,0.0,-2.17,0.00,-272.51,0.0,0,0,0,0,0,0.00,0.00,0.00,0.00,-241.80,-241.80
2013-11-01 04:50:00,10.61,90.20,0.001,187.50,0.24,0.0,-2.17,0.00,-271.83,0.0,0,0,0,0,0,0.00,0.00,0.00,0.00,-241.80,-241.90
2013-11-01 05:00:00,10.86,90.00,0.001,199.50,0.30,0.0,-2.17,0.00,-270.82,0.0,0,0,0,0,0,0.00,0.00,0.00,0.00,-241.90,-241.80
2013-11-01 05:10:00,11.10,90.00,0.001,209.20,0.24,0.0,-4.87,0.00,-267.77,0.0,0,0,0,0,0,0.00,0.00,0.00,0.00,-241.80,-241.80
2013-11-01 05:20:00,11.26,89.90,0.000,205.10,0.25,0.0,-4.54,0.00,-264.05,0.0,0,0,0,0,0,0.00,0.00,0.00,0.00,-241.80,-241.80
2013-11-01 05:30:00,11.23,89.30,0.000,212.50,0.26,0.0,-4.20,0.00,-261.34,0.0,0,0,0,0,0,0.00,0.00,0.00,0.00,-241.70,-241.90
2013-11-01 05:40:00,11.40,89.20,0.000,194.40,0.27,0.0,-3.86,0.00,-256.94,0.0,0,0,0,0,0,0.00,0.00,0.00,0.00,-241.80,-241.90
2013-11-01 05:50:00,11.23,88.90,0.000,156.70,0.16,0.0,-1.83,0.00,-254.57,0.0,0,0,0,0,0,0.00,0.00,0.00,0.00,-241.80,-241.80
2013-11-01 06:00:00,11.26,88.90,0.003,171.00,0.19,0.0,-1.49,0.00,-253.89,0.0,0,0,0,0,0,0.00,0.00,0.00,0.00,-241.70,-241.80
2013-11-01 06:10:00,11.43,88.30,0.003,210.80,0.20,0.0,-2.51,0.00,-253.89,0.0,0,0,0,0,0,0.00,0.00,0.00,0.00,-241.90,-241.90
2013-11-01 06:20:00,11.48,87.50,0.006,222.30,0.22,0.0,-2.51,0.00,-254.57,0.0,0,0,0,0,0,0.00,0.00,0.00,0.00,-241.80,-241.90
2013-11-01 06:30:00,11.48,87.30,0.009,210.90,0.25,0.0,-1.83,0.00,-251.18,0.0,0,0,0,0,0,0.00,0.00,0.00,0.00,-241.80,-241.80
2013-11-01 06:40:00,11.59,87.20,0.012,222.20,0.21,0.0,-4.54,0.00,-248.48,0.0,0,0,0,0,0,0.00,0.00,0.00,0.00,-241.80,-241.80
2013-11-01 06:50:00,11.63,86.60,0.025,211.30,0.20,0.0,-3.18,0.00,-245.09,0.0,0,0,0,0,0,0.00,0.00,0.00,0.00,-241.80,-241.70
2013-11-01 07:00:00,11.72,85.70,0.043,210.00,0.19,0.0,-4.54,0.00,-242.38,0.0,0,0,0,0,0,0.00,0.00,0.00,0.00,-241.80,-241.80
2013-11-01 07:10:00,11.88,84.60,0.083,203.50,0.26,0.0,-4.54,0.00,-240.01,0.0,0,0,0,0,0,0.00,0.00,0.00,0.00,-241.80,-241.70
2013-11-01 07:20:00,12.09,83.70,0.052,201.60,0.28,0.0,-4.20,0.00,-239.00,0.0,0,0,0,0,0,0.00,0.00,0.00,0.00,-241.80,-241.80
2013-11-01 07:30:00,12.17,83.30,0.045,212.60,0.25,0.0,-4.87,0.00,-236.29,0.0,0,0,0,0,0,0.00,0.00,0.00,0.00,-241.80,-241.80
2013-11-01 07:40:00,12.34,82.00,0.085,201.30,0.25,0.0,-4.54,0.00,-234.94,0.0,0,0,0,0,0,0.00,0.00,0.00,0.00,-241.80,-241.80
2013-11-01 07:50:00,12.51,80.60,0.089,207.50,0.35,0.0,-2.17,0.00,-235.61,0.0,0,0,0,0,0,0.00,0.00,0.00,0.00,-241.80,-241.80
2013-11-01 08:00:00,12.62,79.32,0.043,203.30,0.20,0.0,-2.51,0.00,-234.26,0.0,0,0,0,0,0,0.00,0.00,0.00,0.00,-241.80,-241.80
2013-11-01 08:10:00,12.66,78.54,0.077,218.10,0.24,0.0,-4.20,0.00,-230.87,0.0,0,0,0,0,0,0.00,0.00,0.00,0.00,-241.80,-241.80
2013-11-01 08:20:00,12.70,77.69,0.082,208.20,0.21,0.0,-5.21,0.00,-228.17,0.0,0,0,0,0,0,0.00,0.00,0.00,0.00,-241.80,-241.80
2013-11-01 08:30:00,13.12,76.03,0.313,201.00,0.20,0.0,-2.17,0.00,-224.78,0.0,0,0,0,0,0,0.00,0.00,0.00,0.00,-241.80,-241.80
2013-11-01 08:40:00,13.61,72.65,0.208,205.10,1.62,0.0,-2.51,0.00,-221.39,0.0,0,0,0,0,0,0.00,0.00,0.00,0.00,-241.80,-241.80
2013-11-01 08:50:00,13.98,71.53,0.469,210.30,1.76,0.0,-4.87,0.00,-218.01,0.0,0,0,0,0,0,0.00,0.00,0.00,0.00,-241.80,-241.80
2013-11-01 09:00:00,15.01,66.96,0.504,210.00,1.96,0.0,-3.18,0.00,-215.64,0.0,0,0,0,0,0,0.00,0.00,0.00,0.00,-241.80,-241.80
2013-11-01 09:10:00,15.01,64.49,0.174,205.50,1.66,0.0,-3.18,0.00,-213.61,0.0,0,0,0,0,0,0.00,0.00,0.00,0.00,-241.80,-241.80
2013-11-01 09:20:00,14.50,68.28,0.225,212.50,1.43,0.0,-2.17,0.00,-213.27,0.0,0,0,0,0,0,0.00,0.00,0.00,0.00,-241.80,-241.80
2013-11-01 09:30:00,14.75,67.23,0.172,213.80,0.31,0.0,-4.87,0.00,-210.56,0.0,0,0,0,0,0,0.00,0.00,0.00,0.00,-241.80,-241.80
2013-11-01 09:40:00,15.20,65.20,0.579,203.40,0.68,0.0,-3.86,0.00,-208.19,0.0,0,0,0,0,0,0.00,0.00,0.00,0.00,-241.80,-241.80
2013-11-01 09:50:00,15.91,61.17,0.623,204.30,1.45,0.0,-6.57,0.00,-205.82,0.0,0,0,0,0,0,0.00,0.00,0.00,0.00,-241.80,-241.80
2013-11-01 10:00:00,16.65,57.14,0.589,194.70,1.82,0.0,-6.90,0.00,-201.76,0.0,0,0,0,0,0,0.00,0.00,0.00,0.00,-241.80,-241.80
2013-11-01 10:10:00,16.65,56.23,0.425,201.80,1.80,0.0,-6.22,0.00,-199.74,0.0,0,0,0,0,0,0.00,0.00,0.00,0.00,-241.80,-241.80
2013-11-01 10:20:00,17.06,53.19,0.620,175.70,0.77,0.0,-4.19,0.00,-197.71,0.0,0,0,0,0,0,0.00,0.00,0.00,0.00,-241.80,-241.80
2013-11-01 10:30:00,16.98,52.92,0.636,192.00,0.48,0.0,-3.51,0.00,-196.37,0.0,0,0,0,0,0,0.00,0.00,0.00,0.00,-241.80,-241.70
2013-11-01 10:40:00,17.19,50.38,0.629,181.00,0.24,0.0,-4.18,0.00,-196.38,0.0,0,0,0,0,0,0.00,0.00,0.00,0.00,-241.80,-241.80
2013-11-01 10:50:00,17.14,51.63,0.279,221.40,0.20,0.0,-5.20,0.00,-198.75,0.0,0,0,0,0,0,0.00,0.00,0.00,0.00,-241.80,-241.80
2013-11-01 11:00:00,16.73,50.82,0.216,171.80,0.26,0.0,-2.83,0.00,-200.78,0.0,0,0,0,0,0,0.00,0.00,0.00,0.00,-241.80,-241.80
2013-11-01 11:10:00,17.30,50.18,0.198,186.00,0.24,0.0,-4.52,0.00,-201.46,0.0,0,0,0,0,0,0.00,0.00,0.00,0.00,-241.80,-241.80
2013-11-01 11:20:00,17.04,49.77,0.177,124.90,0.33,0.0,-2.83,0.00,-202.81,0.0,0,0,0,0,0,0.00,0.00,0.00,0.00,-241.80,-241.80
2013-11-01 11:30:00,16.84,47.77,0.191,119.50,0.32,0.0,-6.21,0.00,-203.49,0.0,0,0,0,0,0,0.00,0.00,0.00,0.00,-241.80,-241.80
2013-11-01 11:40:00,17.09,50.14,0.148,224.80,0.29,0.0,-3.17,0.00,-204.84,0.0,0,0,0,0,0,0.00,0.00,0.00,0.00,-241.80,-241.80
2013-11-01 11:50:00,16.63,49.20,0.151,252.50,0.30,0.0,-2.15,0.00,-208.23,0.0,0,0,0,0,0,0.00,0.00,0.00,0.00,-241.80,-241.80
2013-11-01 12:00:00,16.64,48.52,0.114,15.23,0.32,0.0,-5.54,0.00,-211.61,0.0,0,0,0,0,0,0.00,0.00,0.00,0.00,-241.80,-241.80
2013-11-01 12:10:00,17.34,47.98,0.399,290.70,0.30,0.0,-6.21,0.00,-213.98,0.0,0,0,0,0,0,0.00,0.00,0.00,0.00,-241.80,-241.90
2013-11-01 12:20:00,17.22,47.60,0.224,330.90,0.33,0.0,-6.89,0.00,-219.40,0.0,0,0,0,0,0,0.00,0.00,0.00,0.00,-241.80,-241.80
2013-11-01 12:30:00,17.52,46.22,0.507,331.80,0.30,0.0,-7.57,0.00,-216.01,0.0,0,0,0,0,0,0.00,0.00,0.00,0.00,-241.70,-241.80
2013-11-01 12:40:00,17.47,46.18,0.604,163.90,0.32,0.0,-3.50,0.00,-212.29,0.0,0,0,0,0,0,0.00,0.00,0.00,0.00,-241.80,-241.80
2013-11-01 12:50:00,17.55,46.62,0.168,166.40,0.29,0.0,-3.84,0.00,-209.58,0.0,0,0,0,0,0,0.00,0.00,0.00,0.00,-241.80,-241.80
2013-11-01 13:00:00,17.71,46.15,0.396,191.50,0.27,0.0,-4.86,0.00,-206.87,0.0,0,0,0,0,0,0.00,0.00,0.00,0.00,-241.80,-241.80
2013-11-01 13:10:00,17.50,46.76,0.573,169.60,0.26,0.0,-8.24,0.00,-204.84,0.0,0,0,0,0,0,0.00,0.00,0.00,0.00,-241.70,-241.80
2013-11-01 13:20:00,17.94,45.67,0.567,167.40,0.25,0.0,-8.24,0.00,-202.81,0.0,0,0,0,0,0,0.00,0.00,0.00,0.00,-241.80,-241.80
2013-11-01 13:30:00,18.10,43.98,0.534,182.80,0.34,0.0,-7.57,0.00,-201.79,0.0,0,0,0,0,0,0.00,0.00,0.00,0.00,-241.80,-241.70
2013-11-01 13:40:00,18.63,42.73,0.479,293.00,0.33,0.0,-7.23,0.00,-200.10,0.0,0,0,0,0,0,0.00,0.00,0.00,0.00,-241.80,-241.90
2013-11-01 13:50:00,18.51,42.39,0.404,329.50,0.24,0.0,-5.87,0.00,-203.83,0.0,0,0,0,0,0,0.00,0.00,0.00,0.00,-241.80,-241.80
2013-11-01 14:00:00,18.26,44.22,0.152,56.03,0.26,0.0,-3.16,0.00,-200.45,0.0,0,0,0,0,0,0.00,0.00,0.00,0.00,-241.80,-241.80
2013-11-01 14:10:00,18.26,45.21,0.107,333.40,0.26,0.0,-4.85,0.00,-202.83,0.0,0,0,0,0,0,0.00,0.00,0.00,0.00,-241.80,-241.80
2013-11-01 14:20:00,17.93,46.80,0.102,294.10,0.28,0.0,-6.20,0.00,-205.54,0.0,0,0,0,0,0,0.00,0.00,0.00,0.00,-241.80,-241.80
2013-11-01 14:30:00,17.60,48.42,0.139,315.40,0.26,0.0,-5.53,0.00,-208.59,0.0,0,0,0,0,0,0.00,0.00,0.00,0.00,-241.80,-241.80
2013-11-01 14:40:00,17.61,47.30,0.328,336.60,0.27,0.0,-2.14,0.00,-216.03,0.0,0,0,0,0,0,0.00,0.00,0.00,0.00,-241.80,-241.80
2013-11-01 14:50:00,18.20,44.73,0.325,266.60,0.27,0.0,-5.87,0.00,-220.76,0.0,0,0,0,0,0,0.00,0.00,0.00,0.00,-241.80,-241.70
2013-11-01 15:00:00,17.95,45.47,0.281,304.50,0.26,0.0,-6.21,0.00,-223.81,0.0,0,0,0,0,0,0.00,0.00,0.00,0.00,-241.80,-241.80
2013-11-01 15:10:00,18.27,45.07,0.243,300.80,0.23,0.0,-6.55,0.00,-226.86,0.0,0,0,0,0,0,0.00,0.00,0.00,0.00,-241.80,-241.80
2013-11-01 15:20:00,18.36,45.78,0.194,260.80,0.21,0.0,-2.82,0.00,-230.24,0.0,0,0,0,0,0,0.00,0.00,0.00,0.00,-241.80,-241.80
2013-11-01 15:30:00,18.18,46.69,0.114,265.80,0.29,0.0,-6.21,0.00,-230.24,0.0,0,0,0,0,0,0.00,0.00,0.00,0.00,-241.80,-241.80
2013-11-01 15:40:00,17.61,46.96,0.066,183.30,0.26,0.0,-5.53,0.00,-230.58,0.0,0,0,0,0,0,0.00,0.00,0.00,0.00,-241.80,-241.80
2013-11-01 15:50:00,17.86,46.12,0.096,239.30,0.30,0.0,-5.87,0.00,-233.29,0.0,0,0,0,0,0,0.00,0.00,0.00,0.00,-241.80,-241.80
2013-11-01 16:00:00,17.71,46.96,0.117,273.50,0.31,0.0,-5.87,0.00,-234.98,0.0,0,0,0,0,0,0.00,0.00,0.00,0.00,-241.70,-241.80
2013-11-01 16:10:00,17.71,46.39,0.071,307.60,0.32,0.0,-5.87,0.00,-237.01,0.0,0,0,0,0,0,0.00,0.00,0.00,0.00,-241.80,-241.80
2013-11-01 16:20:00,17.29,49.30,0.041,314.00,0.29,0.0,-5.54,0.00,-240.39,0.0,0,0,0,0,0,0.00,0.00,0.00,0.00,-241.80,-241.80
2013-11-01 16:30:00,17.01,49.84,0.015,300.70,0.23,0.0,-4.18,0.00,-244.46,0.0,0,0,0,0,0,0.00,0.00,0.00,0.00,-241.80,-241.80
2013-11-01 16:40:00,16.56,52.45,0.004,322.90,0.24,0.0,-4.52,0.00,-249.87,0.0,0,0,0,0,0,0.00,0.00,0.00,0.00,-241.70,-241.70
2013-11-01 16:50:00,16.23,53.09,0.000,326.00,0.20,0.0,-4.52,0.00,-263.42,0.0,0,0,0,0,0,0.00,0.00,0.00,0.00,-241.80,-241.70
2013-11-01 17:00:00,16.15,53.67,0.000,343.80,0.23,0.0,-1.81,0.00,-269.17,0.0,0,0,0,0,0,0.00,0.00,0.00,0.00,-241.70,-241.80
2013-11-01 17:10:00,15.82,54.92,0.000,336.40,0.24,0.0,-5.87,0.00,-274.59,0.0,0,0,0,0,0,0.00,0.00,0.00,0.00,-241.80,-241.70
2013-11-01 17:20:00,15.58,56.61,0.000,352.60,0.19,0.0,-2.49,0.00,-275.27,0.0,0,0,0,0,0,0.00,0.00,0.00,0.00,-241.80,-241.80
2013-11-01 17:30:00,15.00,64.23,0.000,94.90,0.24,0.0,-1.81,0.00,-280.35,0.0,0,0,0,0,0,0.00,0.00,0.00,0.00,-241.80,-241.90
2013-11-01 17:40:00,14.67,67.14,0.000,170.30,0.22,0.0,-5.87,0.00,-284.75,0.0,0,0,0,0,0,0.00,0.00,0.00,0.00,-241.80,-241.80
2013-11-01 17:50:00,14.13,68.36,0.000,173.60,0.23,0.0,-3.84,0.00,-289.49,0.0,0,0,0,0,0,0.00,0.00,0.00,0.00,-241.80,-241.80
2013-11-01 18:00:00,14.01,69.04,0.000,154.60,0.20,0.0,-5.87,0.00,-292.20,0.0,0,0,0,0,0,0.00,0.00,0.00,0.00,-241.80,-241.80
2013-11-01 18:10:00,13.92,69.78,0.000,213.70,0.24,0.0,-4.52,0.00,-301.67,0.0,0,0,0,0,0,0.00,0.00,0.00,0.00,-241.80,-241.80
2013-11-01 18:20:00,13.76,69.24,0.000,217.40,0.21,0.0,-1.47,0.00,-305.40,0.0,0,0,0,0,0,0.00,0.00,0.00,0.00,-241.80,-241.80
2013-11-01 18:30:00,13.52,69.81,0.000,280.60,0.26,0.0,-2.83,0.00,-303.69,0.0,0,0,0,0,0,0.00,0.00,0.00,0.00,-241.80,-241.70
2013-11-01 18:40:00,13.36,70.49,0.000,332.30,0.22,0.0,-0.80,0.00,-305.37,0.0,0,0,0,0,0,0.00,0.00,0.00,0.00,-241.80,-241.70
2013-11-01 18:50:00,13.03,74.28,0.000,332.00,0.25,0.0,-3.51,0.00,-306.39,0.0,0,0,0,0,0,0.00,0.00,0.00,0.00,-241.80,-241.80
2013-11-01 19:00:00,12.62,76.71,0.000,291.20,0.29,0.0,-5.55,0.00,-307.74,0.0,0,0,0,0,0,0.00,0.00,0.00,0.00,-241.80,-241.80
2013-11-01 19:10:00,12.45,77.96,0.000,295.70,0.28,0.0,-1.49,0.00,-308.40,0.0,0,0,0,0,0,0.00,0.00,0.00,0.00,-241.80,-241.80
2013-11-01 19:20:00,12.37,76.88,0.000,255.90,0.23,0.0,-3.86,0.00,-309.41,0.0,0,0,0,0,0,0.00,0.00,0.00,0.00,-241.80,-241.80
2013-11-01 19:30:00,12.04,77.49,0.000,170.10,0.23,0.0,-1.49,0.00,-310.77,0.0,0,0,0,0,0,0.00,0.00,0.00,0.00,-241.80,-241.80
2013-11-01 19:40:00,11.96,79.89,0.000,181.40,0.17,0.0,-5.55,0.00,-312.80,0.0,0,0,0,0,0,0.00,0.00,0.00,0.00,-241.80,-241.80
2013-11-01 19:50:00,11.56,81.40,0.000,170.20,0.23,0.0,-5.55,0.00,-312.12,0.0,0,0,0,0,0,0.00,0.00,0.00,0.00,-241.80,-241.80
2013-11-01 20:00:00,11.55,80.60,0.000,186.80,0.22,0.0,-5.55,0.00,-321.60,0.0,0,0,0,0,0,0.00,0.00,0.00,0.00,-241.70,-241.80
2013-11-01 20:10:00,11.50,78.74,0.000,177.30,0.28,0.0,-5.55,0.00,-314.83,0.0,0,0,0,0,0,0.00,0.00,0.00,0.00,-241.80,-241.80
2013-11-01 20:20:00,11.30,78.40,0.000,165.50,0.25,0.0,-4.87,0.00,-314.83,0.0,0,0,0,0,0,0.00,0.00,0.00,0.00,-241.80,-241.80
2013-11-01 20:30:00,11.50,77.59,0.000,188.70,0.16,0.0,-3.52,0.00,-314.15,0.0,0,0,0,0,0,0.00,0.00,0.00,0.00,-241.80,-241.80
2013-11-01 20:40:00,11.21,78.10,0.000,189.50,0.15,0.0,-5.21,0.00,-314.49,0.0,0,0,0,0,0,0.00,0.00,0.00,0.00,-241.80,-241.80
2013-11-01 20:50:00,11.21,78.98,0.000,170.30,0.17,0.0,-5.89,0.00,-313.47,0.0,0,0,0,0,0,0.00,0.00,0.00,0.00,-241.80,-241.90
2013-11-01 21:00:00,11.09,79.18,0.000,208.70,0.19,0.0,-5.55,0.00,-314.83,0.0,0,0,0,0,0,0.00,0.00,0.00,0.00,-241.80,-241.80
2013-11-01 21:10:00,11.02,81.10,0.000,207.20,0.29,0.0,-4.20,0.00,-314.15,0.0,0,0,0,0,0,0.00,0.00,0.00,0.00,-241.80,-241.80
2013-11-01 21:20:00,10.77,82.70,0.000,163.80,0.24,0.0,-5.21,0.00,-323.63,0.0,0,0,0,0,0,0.00,0.00,0.00,0.00,-241.80,-241.80
2013-11-01 21:30:00,10.73,82.00,0.000,168.60,0.33,0.0,-1.15,0.00,-317.20,0.0,0,0,0,0,0,0.00,0.00,0.00,0.00,-241.70,-241.80
2013-11-01 21:40:00,10.40,82.00,0.000,71.96,0.29,0.0,-5.21,0.00,-316.86,0.0,0,0,0,0,0,0.00,0.00,0.00,0.00,-241.80,-241.80
2013-11-01 21:50:00,10.24,83.30,0.000,21.67,0.27,0.0,-3.52,0.00,-317.54,0.0,0,0,0,0,0,0.00,0.00,0.00,0.00,-241.70,-241.70
2013-11-01 22:00:00,10.15,83.40,0.000,22.28,0.21,0.0,-5.21,0.00,-315.84,0.0,0,0,0,0,0,0.00,0.00,0.00,0.00,-241.80,-241.90
2013-11-01 22:10:00,10.24,83.20,0.000,80.50,0.26,0.0,-1.49,0.00,-316.86,0.0,0,0,0,0,0,0.00,0.00,0.00,0.00,-241.80,-241.80
2013-11-01 22:20:00,10.16,83.50,0.000,92.30,0.31,0.0,-5.55,0.00,-316.52,0.0,0,0,0,0,0,0.00,0.00,0.00,0.00,-241.80,-241.70
2013-11-01 22:30:00,10.08,83.60,0.000,201.40,0.24,0.0,-2.84,0.00,-316.18,0.0,0,0,0,0,0,0.00,0.00,0.00,0.00,-241.80,-241.80
2013-11-01 22:40:00,10.25,83.50,0.000,223.80,0.33,0.0,-2.17,0.00,-325.66,0.0,0,0,0,0,0,0.00,0.00,0.00,0.00,-241.80,-241.80
2013-11-01 22:50:00,10.13,83.20,0.000,211.40,0.22,0.0,-4.87,0.00,-327.01,0.0,0,0,0,0,0,0.00,0.00,0.00,0.00,-241.80,-241.80
2013-11-01 23:00:00,9.96,83.70,0.000,144.50,0.22,0.0,-2.17,0.00,-319.91,0.0,0,0,0,0,0,0.00,0.00,0.00,0.00,-241.80,-241.80
2013-11-01 23:10:00,9.33,84.40,0.000,55.41,0.29,0.0,-4.54,0.00,-317.87,0.0,0,0,0,0,0,0.00,0.00,0.00,0.00,-241.70,-241.70
2013-11-01 23:20:00,9.21,86.00,0.000,34.30,0.26,0.0,-2.17,0.00,-318.21,0.0,0,0,0,0,0,0.00,0.00,0.00,0.00,-241.80,-241.80
2013-11-01 23:30:00,9.34,85.60,0.000,47.68,0.20,0.0,-1.15,0.00,-317.87,0.0,0,0,0,0,0,0.00,0.00,0.00,0.00,-241.80,-241.70
2013-11-01 23:40:00,9.18,85.60,0.000,34.56,0.20,0.0,-1.15,0.00,-317.87,0.0,0,0,0,0,0,0.00,0.00,0.00,0.00,-241.80,-241.70
2013-11-01 23:50:00,9.47,85.70,0.000,351.00,0.21,0.0,-3.18,0.00,-318.21,0.0,0,0,0,0,0,0.00,0.00,0.00,0.00,-241.80,-241.80
2013-11-02 00:00:00,9.44,85.40,0.002,324.30,0.23,0.0,-5.21,0.00,-317.20,0.0,0,0,0,0,0,0.00,0.00,0.00,0.00,-241.80,-241.80
2013-11-02 00:10:00,8.98,85.30,0.000,117.50,0.24,0.0,-1.15,0.00,-328.37,0.0,0,0,0,0,0,0.00,0.00,0.00,0.00,-241.80,-241.80
2013-11-02 00:20:00,8.79,86.90,0.000,78.05,0.28,0.0,-3.52,0.00,-329.72,0.0,0,0,0,0,0,0.00,0.00,0.00,0.00,-241.80,-241.80
2013-11-02 00:30:00,8.82,87.20,0.000,78.53,0.22,0.0,-4.54,0.00,-321.60,0.0,0,0,0,0,0,0.00,0.00,0.00,0.00,-241.80,-241.70
2013-11-02 00:40:00,9.03,87.20,0.001,76.83,0.21,0.0,-4.20,0.00,-320.58,0.0,0,0,0,0,0,0.00,0.00,0.00,0.00,-241.80,-241.80
2013-11-02 00:50:00,8.83,86.50,0.001,73.77,0.30,0.0,-1.15,0.00,-321.60,0.0,0,0,0,0,0,0.00,0.00,0.00,0.00,-241.80,-241.80
2013-11-02 01:00:00,8.87,87.00,0.001,88.40,0.26,0.0,-4.54,0.00,-319.91,0.0,0,0,0,0,0,0.00,0.00,0.00,0.00,-241.80,-241.80
2013-11-02 01:10:00,8.66,86.50,0.001,178.90,0.24,0.0,-4.87,0.00,-319.91,0.0,0,0,0,0,0,0.00,0.00,0.00,0.00,-241.80,-241.80
2013-11-02 01:20:00,8.08,87.40,0.000,111.20,0.27,0.0,-4.87,0.00,-319.57,0.0,0,0,0,0,0,0.00,0.00,0.00,0.00,-241.80,-241.80
2013-11-02 01:30:00,8.20,89.10,0.000,91.40,0.27,0.0,-4.54,0.00,-318.89,0.0,0,0,0,0,0,0.00,0.00,0.00,0.00,-241.80,-241.70
2013-11-02 01:40:00,8.26,88.70,0.000,195.30,0.25,0.0,-1.49,0.00,-318.89,0.0,0,0,0,0,0,0.00,0.00,0.00,0.00,-241.80,-241.70
2013-11-02 01:50:00,8.52,88.80,0.002,202.40,0.21,0.0,-2.51,0.00,-320.24,0.0,0,0,0,0,0,0.00,0.00,0.00,0.00,-241.80,-241.80
2013-11-02 02:00:00,8.56,87.70,0.001,188.50,0.23,0.0,-4.20,0.00,-321.26,0.0,0,0,0,0,0,0.00,0.00,0.00,0.00,-241.80,-241.80
2013-11-02 02:10:00,8.23,87.30,0.000,104.90,0.16,0.0,-1.49,0.00,-320.24,0.0,0,0,0,0,0,0.00,0.00,0.00,0.00,-241.80,-241.70
2013-11-02 02:20:00,7.98,88.30,0.000,48.67,0.22,0.0,-5.21,0.00,-320.58,0.0,0,0,0,0,0,0.00,0.00,0.00,0.00,-241.80,-241.70
2013-11-02 02:30:00,7.97,88.60,0.000,49.39,0.20,0.0,-1.15,0.00,-320.24,0.0,0,0,0,0,0,0.00,0.00,0.00,0.00,-241.80,-241.70
2013-11-02 02:40:00,8.18,88.10,0.001,80.50,0.26,0.0,-1.49,0.00,-320.92,0.0,0,0,0,0,0,0.00,0.00,0.00,0.00,-241.80,-241.90
2013-11-02 02:50:00,8.26,88.10,0.000,175.40,0.20,0.0,-1.49,0.00,-320.24,0.0,0,0,0,0,0,0.00,0.00,0.00,0.00,-241.80,-241.80
2013-11-02 03:00:00,8.14,88.10,0.000,176.30,0.20,0.0,-1.49,0.00,-319.91,0.0,0,0,0,0,0,0.00,0.00,0.00,0.00,-241.80,-241.80
2013-11-02 03:10:00,8.10,88.70,0.000,165.60,0.31,0.0,-4.54,0.00,-318.21,0.0,0,0,0,0,0,0.00,0.00,0.00,0.00,-241.80,-241.80
2013-11-02 03:20:00,8.19,88.30,0.000,210.30,0.27,0.0,-4.20,0.00,-330.40,0.0,0,0,0,0,0,0.00,0.00,0.00,0.00,-241.80,-241.80
2013-11-02 03:30:00,8.11,88.20,0.000,200.80,0.28,0.0,-1.83,0.00,-320.58,0.0,0,0,0,0,0,0.00,0.00,0.00,0.00,-241.80,-241.80
2013-11-02 03:40:00,8.02,88.60,0.000,173.20,0.29,0.0,-1.83,0.00,-315.50,0.0,0,0,0,0,0,0.00,0.00,0.00,0.00,-241.80,-241.80
2013-11-02 03:50:00,8.07,88.40,0.000,159.70,0.28,0.0,-0.81,0.00,-317.54,0.0,0,0,0,0,0,0.00,0.00,0.00,0.00,-241.80,-241.80
2013-11-02 04:00:00,7.65,87.90,0.000,139.50,0.24,0.0,-1.15,0.00,-318.89,0.0,0,0,0,0,0,0.00,0.00,0.00,0.00,-241.80,-241.80
2013-11-02 04:10:00,7.36,88.90,0.000,32.49,0.20,0.0,-4.54,0.00,-318.89,0.0,0,0,0,0,0,0.00,0.00,0.00,0.00,-241.80,-241.80
2013-11-02 04:20:00,7.40,89.10,0.000,29.43,0.26,0.0,-3.52,0.00,-318.21,0.0,0,0,0,0,0,0.00,0.00,0.00,0.00,-241.80,-241.80
2013-11-02 04:30:00,7.40,89.20,0.000,30.24,0.20,0.0,-4.54,0.00,-319.91,0.0,0,0,0,0,0,0.00,0.00,0.00,0.00,-241.80,-241.80
2013-11-02 04:40:00,7.40,89.60,0.001,30.20,0.25,0.0,-0.81,0.00,-321.94,0.0,0,0,0,0,0,0.00,0.00,0.00,0.00,-241.80,-241.80
2013-11-02 04:50:00,7.56,89.10,0.001,28.48,0.21,0.0,-1.83,0.00,-329.72,0.0,0,0,0,0,0,0.00,0.00,0.00,0.00,-241.80,-241.80
2013-11-02 05:00:00,7.39,89.00,0.001,28.42,0.22,0.0,-3.86,0.00,-329.72,0.0,0,0,0,0,0,0.00,0.00,0.00,0.00,-241.80,-241.80
2013-11-02 05:10:00,7.53,89.00,0.000,196.00,0.24,0.0,-1.49,0.00,-323.29,0.0,0,0,0,0,0,0.00,0.00,0.00,0.00,-241.80,-241.80
2013-11-02 05:20:00,7.41,88.60,0.001,214.20,0.27,0.0,-1.49,0.00,-321.26,0.0,0,0,0,0,0,0.00,0.00,0.00,0.00,-241.80,-241.80
2013-11-02 05:30:00,7.20,89.10,0.000,194.40,0.33,0.0,-1.15,0.00,-321.94,0.0,0,0,0,0,0,0.00,0.00,0.00,0.00,-241.80,-241.80
2013-11-02 05:40:00,7.29,89.30,0.000,156.90,0.34,0.0,-1.49,0.00,-318.89,0.0,0,0,0,0,0,0.00,0.00,0.00,0.00,-241.80,-241.80
2013-11-02 05:50:00,7.33,89.30,0.000,167.00,0.41,0.0,-3.52,0.00,-317.20,0.0,0,0,0,0,0,0.00,0.00,0.00,0.00,-241.80,-241.80
2013-11-02 06:00:00,7.16,89.10,0.001,193.90,0.33,0.0,-4.20,0.00,-317.20,0.0,0,0,0,0,0,0.00,0.00,0.00,0.00,-241.80,-241.80
2013-11-02 06:10:00,7.08,89.30,0.005,177.60,0.29,0.0,-1.83,0.00,-318.55,0.0,0,0,0,0,0,0.00,0.00,0.00,0.00,-241.80,-241.70
2013-11-02 06:20:00,7.08,89.70,0.009,167.80,0.30,0.0,-3.52,0.00,-330.06,0.0,0,0,0,0,0,0.00,0.00,0.00,0.00,-241.80,-241.80
2013-11-02 06:30:00,7.12,89.50,0.013,195.20,0.23,0.0,-3.86,0.00,-318.55,0.0,0,0,0,0,0,0.00,0.00,0.00,0.00,-241.80,-241.80
2013-11-02 06:40:00,7.08,89.20,0.020,190.20,0.24,0.0,-3.52,0.00,-320.58,0.0,0,0,0,0,0,0.00,0.00,0.00,0.00,-241.80,-241.80
2013-11-02 06:50:00,7.16,89.20,0.026,192.10,0.20,0.0,-1.83,0.00,-318.89,0.0,0,0,0,0,0,0.00,0.00,0.00,0.00,-241.80,-241.80
2013-11-02 07:00:00,7.29,89.00,0.081,183.10,0.27,0.0,-3.52,0.00,-318.55,0.0,0,0,0,0,0,0.00,0.00,0.00,0.00,-241.80,-241.80
2013-11-02 07:10:00,7.53,88.60,0.096,156.50,0.29,0.0,-2.84,0.00,-316.18,0.0,0,0,0,0,0,0.00,0.00,0.00,0.00,-241.80,-241.80
2013-11-02 07:20:00,7.53,88.00,0.115,160.70,0.33,0.0,-1.49,0.00,-315.17,0.0,0,0,0,0,0,0.00,0.00,0.00,0.00,-241.80,-241.80
2013-11-02 07:30:00,7.98,87.30,0.153,183.80,0.33,0.0,-1.49,0.00,-312.80,0.0,0,0,0,0,0,0.00,0.00,0.00,0.00,-241.80,-241.80
2013-11-02 07:40:00,8.51,85.90,0.181,209.10,1.08,0.0,-3.52,0.00,-310.43,0.0,0,0,0,0,0,0.00,0.00,0.00,0.00,-241.80,-241.80
2013-11-02 07:50:00,8.75,84.20,0.044,160.30,0.92,0.0,-2.51,0.00,-310.43,0.0,0,0,0,0,0,0.00,0.00,0.00,0.00,-241.80,-241.80
2013-11-02 08:00:00,9.29,82.20,0.051,161.20,0.28,0.0,-3.52,0.00,-306.70,0.0,0,0,0,0,0,0.00,0.00,0.00,0.00,-241.80,-241.80